Regional Weather Roundup
Issued by NWS

Home | Current Version | Previous Version | Graphics & Text | Print | Product List | Glossary Off
Versions: 1 2 3 4 5 6 7 8 9 10 11 12 13 14 15 16 17 18 19 20 21 22 23 24 25 26 27 28 29 30 31 32 33 34 35 36 37 38 39 40 41 42 43 44 45 46 47 48 49 50

000
ASUS43 KMKX 201500
RWRWI

WISCONSIN REGIONAL WEATHER ROUNDUP
NATIONAL WEATHER SERVICE MILWAUKEE/SULLIVAN WI
900 AM CST THU NOV 20 2014

NOTE: "FAIR" INDICATES FEW OR NO CLOUDS BELOW 12,000 FEET WITH NO
SIGNIFICANT WEATHER AND/OR OBSTRUCTIONS TO VISIBILITY.

WIZ001-002-006>008-014>016-023>028-201600-
NORTHWEST WISCONSIN

CITY           SKY/WX    TMP DP  RH WIND       PRES   REMARKS
SUPERIOR ARPT  SUNNY      7  -1  71 W10       30.01R WCI  -8
ASHLAND        LGT SNOW   9   4  80 W13       29.95R VSB 3/4 WCI  -7
HAYWARD        SUNNY      7  -1  70 VRB7G16   29.96R WCI  -5
SIREN          SUNNY      7  -1  67 W9        30.03R WCI  -6
CUMBERLAND     SUNNY      5  -4  66 W9        29.98R WCI  -9
RICE LAKE      SUNNY      6  -2  68 W7        30.02R WCI  -5
CHETEK         SUNNY      7  -1  69 W8        30.00R WCI  -6
LADYSMITH      SUNNY      7   1  73 W10       29.97R WCI  -7
EAU CLAIRE     SUNNY     10  -1  61 W13G20    30.04R WCI  -5
MENOMONIE      SUNNY     11   0  59 W13G20    30.05R WCI  -4
NEW RICHMOND   SUNNY      8  -2  62 W16       30.05R WCI  -9
OSCEOLA        SUNNY      9  -1  63 W13       30.09R WCI  -7
$$

WIZ003>005-009-010-017-018-201600-
NORTH CENTRAL WISCONSIN

CITY           SKY/WX    TMP DP  RH WIND       PRES   REMARKS
MANITOWISH WTR FLURRIES   5   0  80 W10       29.83R WCI -10
ARBOR VITAE    SUNNY      9   3  77 W12G17    29.84R WCI  -6
WOODRUFF       SUNNY      9   3  77 W12G17    29.84R WCI  -6
RHINELANDER    SUNNY      7  -1  70 W15G23    29.85R WCI -10
EAGLE RIVER    SUNNY      8  -1  69 W12G18    29.81R WCI  -7
LAND O LAKES   SUNNY      9   2  75 W12       29.81R WCI  -6
PHILLIPS       PTSUNNY    6   0  76 NW7       29.89R WCI  -6
TOMAHAWK       SUNNY      7  -1  72 NW12G20   29.89R WCI  -9
MEDFORD        MOSUNNY    6  -1  71 W10       29.91R WCI  -8
MERRILL        SUNNY      8   1  71 W13       29.90R WCI  -8
$$

WIZ029-030-035-036-043>047-201600-
CENTRAL WISCONSIN

CITY           SKY/WX    TMP DP  RH WIND       PRES   REMARKS
WAUSAU         SUNNY      9   0  67 NW13      29.92R WCI  -7
MOSINEE        SUNNY      9   1  72 W16G22    29.94R WCI  -9
MARSHFIELD     SUNNY     10   0  63 NW17G25   29.95R WCI  -8
STEVENS POINT  SUNNY     10   0  62 NW8G17    29.95R WCI  -2
WAUPACA        SUNNY     17   3  55 W16       29.96R WCI   1
WAUTOMA        PTSUNNY   16   3  57 NW15G24   29.99R WCI   1
WISC RAPIDS    MOSUNNY   12   1  61 NW14      29.99R WCI  -3
CAMP DOUGLAS   NOT AVBL
$$

WIZ011>013-019>022-031-037>040-048>050-201600-
NORTHEAST WISCONSIN

CITY           SKY/WX    TMP DP  RH WIND       PRES   REMARKS
ANTIGO         SUNNY      7   1  73 W14G22    29.86R WCI  -9
SHAWANO        SUNNY     15   4  62 W12G21    29.93R WCI   2
OCONTO         SUNNY     15   7  71 W12G17    29.90R WCI   1
STURGEON BAY   CLOUDY    16   3  57 W18G29    29.88R WCI  -1
GREEN BAY      SUNNY     16   4  59 W18G25    29.93R WCI   0
MANITOWOC      NOT AVBL
APPLETON       MOSUNNY   16   1  53 NW17      29.93R WCI   0
CLINTONVILLE   SUNNY     14   3  62 W16G26    29.94R WCI  -2
OSHKOSH        CLOUDY    17   7  64 W18G25    29.95R WCI   1
$$

WIZ032>034-041-042-053>061-201600-
SOUTHWEST WISCONSIN

CITY           SKY/WX    TMP DP  RH WIND       PRES   REMARKS
LA CROSSE      SUNNY     17   3  54 W14       30.07R WCI   3
SPARTA         SUNNY     15   5  64 W12G18    30.03R WCI   2
VIROQUA        SUNNY     14   4  64 NW13      30.01R WCI   0
BOSCOBEL       SUNNY     18   5  57 W7        30.08R WCI   9
PRAIRIE DU CHI SUNNY     15   6  68 W8        30.11R WCI   4
PLATTEVILLE    SUNNY     16  10  77 W15       30.07R WCI   1
$$

WIZ056-057-062-063-064-067-068-201600-
SOUTH CENTRAL WISCONSIN

CITY           SKY/WX    TMP DP  RH WIND       PRES   REMARKS
REEDSBURG      SUNNY     15   6  67 W15       30.01R WCI   0
BARABOO/DELLS  MOSUNNY   16   7  67 W13       30.00R WCI   2
LONE ROCK      NOT AVBL
MINERAL POINT  SUNNY     18   9  68 W16       30.02R WCI   3
MADISON        MOSUNNY   18   7  62 W9G17     30.01R WCI   7
MIDDLETON      SUNNY     19   9  64 W14       30.01R WCI   6
WATERTOWN      SUNNY     17   9  70 W13G21    29.99R WCI   4
MONROE         SUNNY     18  12  79 W16G26    30.02R WCI   3
JANESVILLE     SUNNY     19  10  68 W15G21    30.02S WCI   5
$$

WIZ051-052-058>065-066-070>072-201600-
SOUTHEAST WISCONSIN

CITY           SKY/WX    TMP DP  RH WIND       PRES   REMARKS
MILWAUKEE      MOSUNNY   19   7  59 W18G28    29.99R WCI   4
WAUKESHA       MOSUNNY   16   9  73 W12G25    29.98R WCI   3
MILWAUKEE/TIMM NOT AVBL
RACINE         SUNNY     20   9  62 W12G24    30.00R WCI   8
BURLINGTON     SUNNY     17  10  73 W14G21    30.00R WCI   3
KENOSHA        SUNNY     20  11  68 W17G26    30.00R WCI   5
FOND DU LAC    SUNNY     17   6  62 W17G28    29.96R WCI   1
SHEBOYGAN      PTSUNNY   18   7  62 W17G30    29.93R WCI   3
WEST BEND      CLOUDY    18   9  68 W15G28    29.95R WCI   3
JUNEAU         PTSUNNY   16   8  71 W12       29.98R WCI   2
$$

LSZ147-162-201600-
LAKE SUPERIOR

STATION/POSITION TIME  TEMP    WIND        PRES    WAVE
                       AIR SEA DIR/SP/G            HT/PER
                 (UTC) (F)     (DEG/KT/KT) (MB)    (FT/S)
DEVILS ISLAND    1400   13     310/ 23/ 30 1014.1R
PORT WING        1440   12     290/ 19/ 25 1015.2R
SAXON HARBOR     1400   12     250/  4/ 11 1012.9
$$

LMZ867-665-643>646-201600-
LAKE MICHIGAN

STATION/POSITION TIME  TEMP    WIND        PRES    WAVE
                       AIR SEA DIR/SP/G            HT/PER
                 (UTC) (F)     (DEG/KT/KT) (MB)    (FT/S)
CHAMBERS ISLAND  1400   15     250/ 12/ 22 1011.2R
N MID LAKE BUOY  1350   21 42  300/ 21/ 27 1009.8R   5/ 6
NORTHPORT PIER   1419   17     300/ 15/ 23 1010.8R
SISTER BAY       1343          300/ 28/ 34   N/A
ALGOMA LAKESHORE 1313          320/ 10/ 14   N/A
KEWAUNEE LAKESHO 1400   15     290/  8/ 13 1011.6R
SHEBOYGAN LAKESH 1400   19 33  280/ 16/ 21 1014.6R
PORT WASHINGTON  1400   18     270/ 11/ 20 1015.2R
ATWATER BUOY     1400   22     250/ 16/ 21 1015.0R
MILWAUKEE LAKESH 1400   18     270/ 13/ 19   N/A
S MID LAKE BUOY  1350   24 43  280/ 23/ 29 1015.5R   6/ 6
KENOSHA   LAKESH 1400   18     260/ 16/ 20 1015.9R
$$

TC  - TEMPERATURE IN CELSIUS
VSB - VISIBILITY IN STATUTE MILES
WCI - WIND CHILL INDEX
HX  - HEAT INDEX



USA.gov is the U.S. government's official web portal to all federal, state and local government web resources and services.